Caldwell, NJ

12:00 AM EDT on September 16, 2019 (GMT -0400)
Essex County

Weather History for KCDW - July, 2019

Change the Weather History Date:

Monday, July 22, 2019

  Actual Average Record
Temperature  
Mean Temperature 82 °F -  
Max Temperature 91 °F 85 °F 102 °F (2011)
Min Temperature 73 °F 62 °F 51 °F (1965)
Cooling Degree Days 17    
Growing Degree Days 32 (Base 50)    
Moisture  
Dew Point 72 °F    
Average Humidity 84    
Maximum Humidity 97    
Minimum Humidity 55    
Precipitation  
Precipitation 2.09 in - - ()
Sea Level Pressure  
Sea Level Pressure 29.78 in    
Wind  
Wind Speed 3 mph (NE)    
Max Wind Speed 14 mph    
Max Gust Speed 21 mph    
Visibility 7 miles    
Events Fog , Rain , Thunderstorm    
Averages and records for this station are not official NWS values.
T = Trace of Precipitation, MM = Missing Value Source: NWS Daily Summary

Daily Weather History Graph

Daily Weather History Graph

Search for Another Location

Airport or City:

Astronomy

Jul. 22, 2019 Rise Set
Actual Time 5:43 AM EDT 8:22 PM EDT
Civil Twilight 5:12 AM EDT 8:54 PM EDT
Nautical Twilight 4:32 AM EDT 9:34 PM EDT
Astronomical Twilight 3:47 AM EDT 10:19 PM EDT
Moon 11:40 PM EDT (7/22) 11:00 AM EDT (7/22)
Length of Visible Light 15h 42m
Length of Day
14h 38m
Waning Gibbous, 72% of the Moon is Illuminated
Jul 22
Waning Gibbous
Jul 24
Last Quarter
Jul 31
New
Aug 7
First Quarter
Aug 15
Full

Hourly Weather History & Observations

Time (EDT) Temp. Heat Index Dew Point Humidity Pressure Visibility Wind Dir Wind Speed Gust Speed Precip Events Conditions
12:53 AM 79.0 °F - 75.0 °F 88% 29.91 in 10.0 mi Calm Calm - N/A   Scattered Clouds
1:53 AM 78.1 °F - 73.9 °F 87% 29.89 in 10.0 mi Calm Calm - N/A   Scattered Clouds
2:53 AM 79.0 °F - 72.0 °F 79% 29.84 in 10.0 mi Variable 3.5 mph - 0.00 in Rain Light Rain
3:53 AM 78.1 °F - 73.0 °F 84% 29.87 in 10.0 mi WSW 3.5 mph - 0.00 in   Clear
4:53 AM 77.0 °F - 73.0 °F 88% 29.85 in 10.0 mi Calm Calm - N/A   Clear
5:53 AM 75.9 °F - 73.0 °F 91% 29.87 in 10.0 mi Calm Calm - N/A   Scattered Clouds
6:53 AM 77.0 °F - 73.9 °F 90% 29.87 in 10.0 mi Calm Calm - N/A   Scattered Clouds
7:53 AM 78.1 °F - 73.9 °F 87% 29.88 in 10.0 mi Calm Calm - N/A   Partly Cloudy
8:53 AM 80.1 °F 83.8 °F 72.0 °F 76% 29.88 in 10.0 mi Calm Calm - N/A   Scattered Clouds
9:53 AM 82.0 °F 86.7 °F 72.0 °F 71% 29.86 in 10.0 mi East 4.6 mph - N/A   Clear
10:53 AM 84.9 °F 90.7 °F 72.0 °F 65% 29.85 in 10.0 mi ESE 6.9 mph - N/A   Mostly Cloudy
11:53 AM 89.1 °F 96.0 °F 72.0 °F 57% 29.82 in 10.0 mi South 8.1 mph - N/A   Mostly Cloudy
12:53 PM 90.0 °F 97.9 °F 73.0 °F 57% 29.80 in 10.0 mi Variable 4.6 mph - N/A   Mostly Cloudy
1:53 PM 90.0 °F 96.9 °F 72.0 °F 55% 29.78 in 10.0 mi SW 6.9 mph - N/A   Mostly Cloudy
2:53 PM 91.0 °F 99.3 °F 73.0 °F 55% 29.74 in 10.0 mi Variable 4.6 mph - N/A   Partly Cloudy
3:18 PM 91.0 °F 100.4 °F 73.9 °F 57% 29.72 in 10.0 mi South 6.9 mph - N/A Thunderstorm Scattered Clouds
3:48 PM 87.8 °F 95.6 °F 73.4 °F 62% 29.72 in 10.0 mi South 9.2 mph - N/A Thunderstorm Thunderstorm
3:53 PM 87.1 °F 94.5 °F 73.0 °F 63% 29.73 in 10.0 mi South 10.4 mph - N/A Thunderstorm Thunderstorm
4:03 PM 86.0 °F 93.8 °F 73.9 °F 67% 29.71 in 10.0 mi SE 9.2 mph - N/A Thunderstorm Overcast
4:32 PM 84.0 °F 89.6 °F 72.0 °F 67% 29.72 in 10.0 mi North 6.9 mph - N/A Thunderstorm Thunderstorm
4:42 PM 79.0 °F - 71.1 °F 77% 29.71 in 10.0 mi ENE 9.2 mph 17.3 mph N/A Thunderstorm Overcast
4:53 PM 81.0 °F 84.9 °F 71.1 °F 72% 29.72 in 10.0 mi NE 6.9 mph - N/A Thunderstorm Overcast
4:56 PM 81.0 °F 84.9 °F 71.1 °F 72% 29.71 in 10.0 mi NNE 5.8 mph - N/A Thunderstorm Thunderstorm
5:07 PM 78.1 °F - 72.0 °F 81% 29.74 in 1.0 mi Calm Calm - 0.10 in Rain , Thunderstorm Light Thunderstorms and Rain
5:10 PM 77.0 °F - 73.0 °F 88% 29.73 in 0.2 mi ENE 5.8 mph - 0.25 in Fog , Rain , Thunderstorm Heavy Thunderstorms and Rain
5:19 PM 75.0 °F - 73.0 °F 94% 29.72 in 0.2 mi NNW 13.8 mph 20.7 mph 0.84 in Fog , Rain , Thunderstorm Heavy Thunderstorms and Rain
5:30 PM 75.0 °F - 73.0 °F 94% 29.73 in 0.5 mi NE 8.1 mph - 1.11 in Fog , Rain , Thunderstorm Heavy Thunderstorms and Rain
5:37 PM 75.0 °F - 72.0 °F 90% 29.72 in 2.0 mi NNE 12.7 mph 19.6 mph 1.12 in Rain , Thunderstorm Light Thunderstorms and Rain
5:45 PM 73.9 °F - 72.0 °F 93% 29.71 in 1.2 mi NE 13.8 mph 20.7 mph 1.25 in Rain , Thunderstorm Heavy Thunderstorms and Rain
5:53 PM 73.9 °F - 72.0 °F 93% 29.73 in 2.5 mi Variable 6.9 mph 20.7 mph 1.25 in Rain , Thunderstorm Light Thunderstorms and Rain
6:00 PM 73.9 °F - 73.0 °F 97% 29.73 in 5.0 mi NE 8.1 mph - 0.01 in Rain , Thunderstorm Light Thunderstorms and Rain
6:14 PM 73.9 °F - 72.0 °F 93% 29.71 in 2.5 mi NNE 8.1 mph - 0.06 in Rain , Thunderstorm Light Thunderstorms and Rain
6:20 PM 73.0 °F - 72.0 °F 96% 29.72 in 0.8 mi Variable 4.6 mph - 0.25 in Rain , Thunderstorm Heavy Thunderstorms and Rain
6:28 PM 73.9 °F - 72.0 °F 93% 29.74 in 0.8 mi NNW 8.1 mph - 0.41 in Rain , Thunderstorm Heavy Rain
6:42 PM 73.0 °F - 72.0 °F 96% 29.74 in 2.5 mi Variable 3.5 mph - 0.54 in Rain , Thunderstorm Light Rain
6:49 PM 73.4 °F - 71.6 °F 94% 29.75 in 4.0 mi Calm Calm - 0.55 in Rain , Thunderstorm Light Rain
6:53 PM 73.0 °F - 72.0 °F 96% 29.77 in 4.0 mi Calm Calm - 0.55 in Rain , Thunderstorm Light Rain
7:10 PM 73.0 °F - 72.0 °F 96% 29.78 in 3.0 mi Calm Calm - 0.03 in Rain , Thunderstorm Light Thunderstorms and Rain
7:25 PM 73.9 °F - 72.0 °F 93% 29.78 in 7.0 mi Calm Calm - 0.04 in Rain , Thunderstorm Light Rain
7:33 PM 73.9 °F - 72.0 °F 93% 29.77 in 4.0 mi NNE 3.5 mph - 0.06 in Rain Rain
7:53 PM 73.0 °F - 72.0 °F 96% 29.77 in 3.0 mi Calm Calm - 0.13 in Rain Rain
8:19 PM 73.0 °F - 72.0 °F 96% 29.76 in 5.0 mi Calm Calm - 0.06 in Rain Light Rain
8:32 PM 73.0 °F - 71.1 °F 93% 29.76 in 7.0 mi North 3.5 mph - 0.07 in Rain Light Rain
8:53 PM 73.0 °F - 72.0 °F 96% 29.78 in 7.0 mi Calm Calm - 0.08 in Rain Light Rain
9:31 PM 73.0 °F - 72.0 °F 96% 29.77 in 10.0 mi Calm Calm - 0.01 in Rain Light Rain
9:41 PM 73.9 °F - 72.0 °F 93% 29.77 in 10.0 mi Calm Calm - 0.01 in Rain Light Rain
9:53 PM 73.0 °F - 72.0 °F 96% 29.78 in 10.0 mi North 3.5 mph - 0.01 in Rain Light Rain
10:06 PM 73.0 °F - 72.0 °F 96% 29.77 in 10.0 mi Calm Calm - 0.00 in   Mostly Cloudy
10:53 PM 73.9 °F - 72.0 °F 93% 29.79 in 8.0 mi Calm Calm - 0.01 in Rain Light Rain
11:01 PM 73.0 °F - 72.0 °F 96% 29.78 in 4.0 mi Calm Calm - 0.01 in Rain Rain
11:53 PM 73.0 °F - 72.0 °F 96% 29.80 in 10.0 mi Calm Calm - 0.06 in   Overcast